Regional Weather Roundup
Issued by NWS Lake Charles, LA

Current Version | Previous Version | Text Only | Print | Product List | Glossary On
Versions: 1 2 3 4 5 6 7 8 9 10 11 12 13 14 15 16 17 18 19 20 21 22 23 24 25 26 27 28 29 30 31 32 33 34 35 36 37 38 39 40 41 42 43 44 45 46 47 48 49 50
000
ASUS44 KLCH 030210
RWRLCH
RWRLCH
REGIONAL WEATHER ROUNDUP
NATIONAL WEATHER SERVICE LAKE CHARLES LA
900 PM CDT WED SEP 02 2015

Note: "fair" indicates few or no clouds below 12,000 feet with no
significant weather and/or obstructions to visibility.


ACROSS SOUTHEAST TEXAS

CITY           SKY/WX    TMP DP  RH WIND       PRES   REMARKS
BEAUMONT       CLEAR     78  74  87 E8        29.95R
BEAUMONT CITY    N/A     77  73  87 E3        29.95S
ORANGE         CLEAR    N/A N/A N/A CALM      29.97R
JASPER         CLEAR     79  69  73 CALM      30.00S
$$

ACROSS CENTRAL LOUISIANA

CITY           SKY/WX    TMP DP  RH WIND       PRES   REMARKS
LEESVILLE      NOT AVBL
FULLERTON        N/A     73  69  87 CALM      29.96S
ALEXANDRIA INT CLEAR     77  69  76 CALM      29.97R
ESLER FIELD    CLEAR     77  70  79 CALM      29.98S
DERIDDER         N/A     78  69  74 CALM      29.99S
OAKDALE        FOG       72  71  96 CALM      29.98R VSB 1/2
OPELOUSAS        N/A     76  72  86 CALM      29.98S
$$

ACROSS SOUTHWEST AND SOUTH CENTRAL LOUISIANA

CITY           SKY/WX    TMP DP  RH WIND       PRES   REMARKS
SULPHUR        PTCLDY    77  75  95 NE3       29.97R
LAKE CHARLES   CLEAR     76  74  93 NE5       29.96R
CHENNAULT INT  CLEAR     75  73  94 CALM      29.97R
CAMERON PHI    CLOUDY    77  73  88 E7        29.98R
DEQUINCY         N/A     74  74 100 CALM      29.97S
JENNINGS         N/A     75  73  91 E5        29.97S
LAFAYETTE      MOCLDY    77  73  87 NE3       29.98R
NEW IBERIA     CLOUDY    79  75  87 NE5       29.98S
ABBEVILLE        N/A     75  74  98 NE3       29.98R
PATTERSON      CLOUDY    77  72  83 CALM      29.99R
SALT POINT       N/A     77  76  96 CALM      29.95S
$$

SELECTED SITES ACROSS THE REGION

CITY           SKY/WX    TMP DP  RH WIND       PRES   REMARKS
HOUSTON BUSH   MOCLDY    75  74  96 NE3       29.94F
HOUSTON HOBBY  PTCLDY    80  74  81 E5        29.94R
GALVESTON      PTCLDY    82  75  79 SE9       29.95R
COLLEGE STAT   CLEAR     80  70  71 SE9       29.96R
CONROE         CLEAR     76  70  82 SE3       29.96S
HUNTSVILLE     PTCLDY    79  69  71 CALM      29.95F
LUFKIN         MOCLDY    79  67  66 SE5       29.97R
SHREVEPORT     PTCLDY    83  67  58 S5        29.97R
MONROE         CLEAR     81  72  74 E5        29.98R
NATCHEZ MS     CLEAR     75  68  78 SE5       30.00S
BATON ROUGE    MOCLDY    77  71  82 E3        29.99R
N.O. INTL ARPT CLOUDY    79  71  76 CALM      29.99R
SLIDELL        MOCLDY    77  75  93 CALM      29.99R
$$

MARINE REPORTS

STATION/POSITION TIME  TEMP    WIND        PRES    VSBY  WAVE
                       AIR SEA DIR/SP/G                  HT/PER
                 (UTC) (F)     (DEG/KT/KT) (MB)    (MI)  (FT/S)
BUOY 30 S HIGH I 0150   82 85  140/ 10/ 12 1013.7R         3/ 5
SEA RIM ST PARK  0200   80     130/  6/  7 1014.6R
PORT ARTHUR      0100      85  110/  7/ 11 1013.9F
SABINE PASS N    0100      84  120/  8/ 10 1013.9F
TEXAS POINT      NOT AVBL
CALCASIEU PASS   0100      83  130/  9/ 14 1012.9F
LK CHARLES BEACH 0100      86                N/A
MARSH ISLAND     0100   81     100/  9/ 11   N/A           0
FRESH WATER LOCK 0100      83  110/  4/  7 1014.1F
AMERADA PASS     0100      83   70/  3/  5 1014.6F
$$



USA.gov is the U.S. government's official web portal to all federal, state and local government web resources and services.